Location: Azul
(36.7830°S, 59.8500°W)
Time: 10:13:46
(UTC-03:00)

DOVE 4 - Pass Details

Date: 01 November 2021
Orbit: 588 x 799 km, 97.8° (Epoch: 07 December)

Event Time Altitude Azimuth Distance (km) Brightness Sun altitude
Exits shadow 23:05:46 12° 134° (SE) 2,275 ? -33.6°
Drops below altitude 10° 23:06:39 10° 143° (SE) 2,399 ? -33.7°
Sets 23:10:20 0° 169° (S) 3,325 ? -34.0°
